Regional Weather Roundup
Issued by NWS New Orleans/Baton Rouge, LA

Home | Current Version | Previous Version | Text Only | Print | Product List | Glossary Off
Versions: 1 2 3 4 5 6 7 8 9 10 11 12 13 14 15 16 17 18 19 20 21 22 23 24 25 26 27 28 29 30 31 32 33 34 35 36 37 38 39 40 41 42 43 44 45 46 47 48 49 50

269
ASUS44 KLIX 142301
RWRLIX
NEW ORLEANS REGIONAL WEATHER ROUNDUP
NATIONAL WEATHER SERVICE NEW ORLEANS LA
600 PM CDT SUN SEP 14 2014

NOTE: "FAIR" INDICATES FEW OR NO CLOUDS BELOW 12,000 FEET WITH NO
      SIGNIFICANT WEATHER AND/OR OBSTRUCTIONS TO VISIBILITY.
      SKY/WX - SKY CONDITION AND SIGNIFICANT WEATHER.
      TMP - AIR TEMPERATURE.     DP    - DEWPOINT TEMPERATURE.
      RH  - RELATIVE HUMIDITY.   PRES  - PRESSURE.
      HI  - HEAT INDEX.          WCI   - WIND CHILL INDEX.

*  THESE STATIONS ARE NOT NWS OR FAA STATIONS AND ARE NOT UNDER
   NWS QUALITY CONTROL.

LAZ038-040-048-061>063-065>067-069-150000-
SOUTHEAST LOUISIANA

CITY           SKY/WX    TMP DP  RH WIND       PRES   REMARKS
N.O. AUDUBON     N/A     87  74  64 MISG        N/A  HX  96
N.O. INTL ARPT MOSUNNY   88  73  61 NE7       30.04S HX  95
N.O. LAKEFRONT SUNNY     87  73  62 SE6       30.04F
N.O. DOWNTOWN*   N/A     88  70  55 NE8       30.04F
SLIDELL        MOSUNNY   86  74  67 W3        30.04S
BATON ROUGE    MOSUNNY   85  72  65 N3        30.05F
BOOTHVILLE     MOSUNNY   85  73  67 NE8       30.04F
BELLE CHASSE   SUNNY     87  72  60 E8        30.03F
BOGALUSA*        N/A     88  71  57 N6        30.06S
GALLIANO*      NOT AVBL
NEW ROADS*       N/A     80  72  75 N6        30.07F
GONZALES*        N/A     87  76  69 NE3       30.03F HX  97
HAMMOND*       NOT AVBL
HOUMA*         MOSUNNY   88  70  55 NE8       30.03F
PORT FOURCHON* CLEAR     86  75  70 E13       30.05F HX  95

$$

MSZ070-080>082-150000-
SOUTHERN MISSISSIPPI

CITY           SKY/WX    TMP DP  RH WIND       PRES   REMARKS
MCCOMB         SUNNY     85  69  58 NE6       30.08S
GULFPORT       MOSUNNY   87  74  64 S7        30.04S HX  95
BILOXI         MOSUNNY   86  76  72 S8        30.05S HX  95
PASCAGOULA     PTSUNNY   82  76  81 CALM      30.05S
STENNIS ARPT*  MOSUNNY   88  72  58 SE6       30.05S

$$

COASTAL OBSERVATIONS
LAKE AND NEARSHORE STATIONS

STATION/POSITION TIME  TEMP    WIND        PRES    WAVE
                       AIR SEA DIR/SP/G            HT/PER
                 (UTC) (F)     (DEG/KT/KT) (MB)    (FT/S)
PASCAGOULA       2200   87     150/  6/ 11 1017.2
WAVELAND YACHT   2200   85     150/  9/ 11 1016.9
GRAND ISLE       2200   84 86   60/ 10/ 13 1017.6
SOUTHWEST PASS   2200   85 91   70/ 15/ 18 1016.9
NEW CANAL        2200   85 83   50/  5/  6 1017.8
SHELL BEACH      2200   85 81   80/  8/ 10 1017.4

OFFSHORE STATIONS

STATION/POSITION TIME  TEMP    WIND        PRES    WAVE
                       AIR SEA DIR/SP/G            HT/PER
                 (UTC) (F)     (DEG/KT/KT) (MB)    (FT/S)
64 S DAUPHIN ISL 2250   83 87   90/ 14/ 16 1017.7    4/ 7

$$




USA.gov is the U.S. government's official web portal to all federal, state and local government web resources and services.